GW6925 Weather Reports


Display with metric or nautical units.
time (UTC)temp
F
wind
direction
speed
MPH
gust
MPH
rain 1hr
in
rain 24hr
in
rain mn
in
humidity
%
barometer
mb
20260502203019 54 116 2.0 8.0 0.00 0.00 0.00 68 1010.3
20260502203014 53 352 2.0 7.0 0.00 0.02 0.02 74 1009.8
20260502202514 54 49 1.0 6.0 0.00 0.00 0.00 62 1010.0
20260502202002 55 318 2.0 6.0 0.00 0.00 0.00 61 1010.0
20260502201519 54 188 1.0 5.0 0.00 0.02 0.02 69 1009.6
20260502201500 55 41 3.0 10.0 0.00 0.00 0.00 61 1010.0
20260502201000 55 284 3.0 10.0 0.00 0.00 0.00 60 1010.1
20260502200454 56 330 3.0 8.0 0.00 0.00 0.00 60 1010.1
20260502200020 55 184 2.0 10.0 0.00 0.02 0.02 67 1009.8
20260502195948 56 349 4.0 13.0 0.00 0.00 0.00 58 1010.1
20260502195441 56 343 5.0 13.0 0.00 0.00 0.00 58 1009.9
20260502194940 56 299 5.0 10.0 0.00 0.00 0.00 56 1009.9
20260502194531 56 202 3.0 8.0 0.00 0.02 0.02 66 1009.6
20260502193925 55 0 6.0 13.0 0.00 0.00 0.00 60 1010.5
20260502193422 55 319 6.0 13.0 0.00 0.00 0.00 57 1010.5
20260502193026 55 141 5.0 11.0 0.00 0.02 0.02 64 1010.0
20260502192920 55 315 6.0 15.0 0.00 0.00 0.00 56 1010.5
20260502192418 55 328 7.0 15.0 0.00 0.00 0.00 55 1010.7
20260502191917 55 3 5.0 13.0 0.00 0.00 0.00 59 1010.7
20260502191516 54 147 4.0 11.0 0.00 0.02 0.02 65 1010.2
20260502190911 55 0 4.0 11.0 0.00 0.00 0.00 57 1010.9
20260502190033 54 161 5.0 10.0 0.00 0.02 0.02 63 1010.4
20260502185911 55 258 5.0 13.0 0.00 0.00 0.00 56 1010.9
20260502185408 55 352 6.0 13.0 0.00 0.00 0.00 55 1010.8
20260502184907 55 306 5.0 13.0 0.00 0.00 0.00 54 1010.8
20260502184525 55 25 5.0 13.0 0.00 0.02 0.02 62 1010.4
20260502184408 55 3 5.0 16.0 0.00 0.00 0.00 54 1010.8
20260502183907 55 336 6.0 16.0 0.00 0.00 0.00 52 1010.9
20260502183400 55 346 5.0 13.0 0.00 0.00 0.00 52 1010.9
20260502183026 55 226 5.0 10.0 0.00 0.02 0.02 60 1010.4
20260502182857 55 344 4.0 11.0 0.00 0.00 0.00 55 1010.9
20260502181850 54 292 5.0 11.0 0.00 0.00 0.00 54 1010.9
20260502181530 54 206 3.0 9.0 0.00 0.02 0.02 61 1010.3
20260502181349 54 0 6.0 13.0 0.00 0.00 0.00 56 1010.9
20260502180845 53 25 6.0 13.0 0.00 0.00 0.00 54 1011.2
20260502180342 54 346 6.0 11.0 0.00 0.00 0.00 60 1011.2
20260502170321 52 312 2.0 8.0 0.00 0.00 0.00 71 1011.6
20260502164309 53 10 1.0 6.0 0.00 0.00 0.00 65 1011.7
20260502163306 52 17 1.0 7.0 0.00 0.00 0.00 65 1011.7
20260502163037 52 181 1.0 6.0 0.00 0.01 0.01 73 1011.1
20260502162800 52 309 2.0 7.0 0.00 0.00 0.00 62 1011.8
20260502162241 52 320 3.0 8.0 0.00 0.00 0.00 62 1011.8
20260502161737 52 8 3.0 10.0 0.00 0.00 0.00 60 1011.8
20260502161526 52 179 2.0 6.0 0.00 0.01 0.01 70 1011.2
20260502161236 53 0 4.0 10.0 0.00 0.00 0.00 59 1011.7
20260502160722 53 309 4.0 8.0 0.00 0.00 0.00 58 1011.7
20260502160223 53 40 4.0 10.0 0.00 0.00 0.00 55 1011.7
20260502152156 52 52 2.0 8.0 0.00 0.00 0.00 64 1011.9
20260502151656 52 0 1.0 6.0 0.00 0.00 0.00 73 1011.9
20260502151511 52 143 0.0 4.0 0.00 0.01 0.01 82 1011.2
20260502151156 52 313 0.0 2.0 0.00 0.00 0.00 77 1012.2
20260502150638 51 313 0.0 2.0 0.00 0.00 0.00 78 1012.2
20260502150133 51 313 1.0 6.0 0.00 0.00 0.00 74 1012.2
20260502130322 48 68 0.0 0.0 0.00 0.00 0.00 80 1012.8
20260502123650 49 68 0.0 2.0 0.00 0.00 0.00 78 1012.9
20260502123130 49 68 1.0 2.0 0.00 0.00 0.00 75 1012.9
20260502123027 49 360 1.0 5.0 0.00 0.00 0.00 82 1012.3
20260502122630 49 55 1.0 8.0 0.00 0.00 0.00 74 1013.1
20260502122128 49 64 2.0 8.0 0.00 0.00 0.00 74 1013.1
20260502121618 49 69 1.0 6.0 0.00 0.00 0.00 75 1013.1
20260502121520 49 257 2.0 3.0 0.00 0.00 0.00 82 1012.6
20260502115510 48 42 1.0 6.0 0.00 0.00 0.00 75 1012.3
20260502115006 48 42 0.0 2.0 0.00 0.00 0.00 76 1012.3
20260502114510 48 360 0.0 4.0 0.00 0.00 0.00 83 1011.7
20260502113956 48 44 0.0 4.0 0.00 0.00 0.00 78 1012.4
20260502113439 47 61 0.0 2.0 0.00 0.00 0.00 79 1012.4
20260502113012 48 154 1.0 4.0 0.00 0.00 0.00 89 1011.8
20260502112936 47 40 0.0 2.0 0.00 0.00 0.00 81 1012.4
20260502112432 47 40 0.0 1.0 0.00 0.00 0.00 84 1011.8
20260502111916 46 40 0.0 0.0 0.00 0.00 0.00 84 1011.8
20260502111517 46 249 0.0 0.0 0.00 0.00 0.00 91 1011.2
20260502111408 46 40 0.0 0.0 0.00 0.00 0.00 84 1011.8
20260502110904 46 40 0.0 0.0 0.00 0.00 0.00 84 1012.1
20260502110329 46 40 0.0 0.0 0.00 0.00 0.00 84 1012.1
20260502110024 46 249 0.0 0.0 0.00 0.00 0.00 92 1011.4
20260502105821 45 40 0.0 1.0 0.00 0.00 0.00 84 1012.1
20260502105315 45 40 0.0 1.0 0.00 0.00 0.00 84 1012.1
20260502104811 45 40 0.0 0.0 0.00 0.00 0.00 84 1012.1
20260502104531 45 249 0.0 0.0 0.00 0.00 0.00 92 1011.4
20260502103247 45 40 0.0 0.0 0.00 0.00 0.00 84 1011.9
20260502103012 44 249 0.0 0.0 0.00 0.00 0.00 92 1011.3
20260502102730 45 40 0.0 0.0 0.00 0.00 0.00 83 1011.8
20260502102220 44 40 0.0 0.0 0.00 0.00 0.00 84 1011.8
20260502101516 44 249 0.0 0.0 0.00 0.00 0.00 92 1011.2
20260502091518 44 248 0.0 2.0 0.00 0.00 0.00 91 1010.9
20260502091308 44 40 0.0 0.0 0.00 0.00 0.00 82 1011.4
20260502090754 44 40 0.0 1.0 0.00 0.00 0.00 82 1011.4
20260502090248 44 40 0.0 1.0 0.00 0.00 0.00 82 1011.4
20260502071527 46 252 0.0 0.0 0.00 0.00 0.00 81 1010.9
20260502071153 48 40 0.0 2.0 0.00 0.00 0.00 66 1011.5
20260502070633 48 40 0.0 2.0 0.00 0.00 0.00 67 1011.5
20260502070026 46 239 0.0 2.0 0.00 0.00 0.00 80 1011.0
20260502065630 48 38 0.0 2.0 0.00 0.00 0.00 67 1011.6
20260502064517 47 230 0.0 2.0 0.00 0.00 0.00 80 1011.0
20260502064006 48 48 0.0 2.0 0.00 0.00 0.00 68 1011.8
20260502063501 47 48 0.0 2.0 0.00 0.00 0.00 68 1011.8
20260502063026 45 315 0.0 1.0 0.00 0.00 0.00 83 1011.2
20260502062938 47 48 0.0 0.0 0.00 0.00 0.00 68 1011.8
20260502062435 47 48 0.0 0.0 0.00 0.00 0.00 69 1011.8
20260502061923 47 48 0.0 0.0 0.00 0.00 0.00 69 1011.8
20260502061507 45 315 0.0 0.0 0.00 0.00 0.00 83 1011.3
20260502061347 47 48 0.0 0.0 0.00 0.00 0.00 70 1011.8
20260502060828 46 48 0.0 0.0 0.00 0.00 0.00 69 1011.9
20260502060318 46 48 0.0 0.0 0.00 0.00 0.00 69 1011.9
20260502060010 44 315 0.0 0.0 0.00 0.00 0.00 84 1011.3
20260502055805 46 48 0.0 0.0 0.00 0.00 0.00 69 1011.9
20260502055253 46 48 0.0 0.0 0.00 0.00 0.00 69 1011.9
20260502054753 46 48 0.0 0.0 0.00 0.00 0.00 69 1011.9
20260502054519 44 315 0.0 2.0 0.00 0.00 0.00 83 1011.3
20260502054235 46 48 0.0 0.0 0.00 0.00 0.00 70 1011.9
20260502053714 46 48 0.0 0.0 0.00 0.00 0.00 70 1011.9
20260502053146 45 48 0.0 0.0 0.00 0.00 0.00 70 1011.9
20260502053022 43 315 0.0 0.0 0.00 0.00 0.00 83 1011.3
20260502052132 45 48 0.0 0.0 0.00 0.00 0.00 70 1012.1
20260502051627 45 48 0.0 0.0 0.00 0.00 0.00 70 1012.1
20260502051508 43 315 0.0 2.0 0.00 0.00 0.00 83 1011.6
20260502051107 45 48 0.0 0.0 0.00 0.00 0.00 70 1012.1
20260502050602 45 48 0.0 0.0 0.00 0.00 0.00 70 1012.1
20260502050035 45 48 0.0 0.0 0.00 0.00 0.00 70 1012.1
20260502050008 43 315 0.0 0.0 0.00 0.00 0.00 82 1011.5
20260502045529 45 48 0.0 0.0 0.00 0.00 0.00 69 1012.1
20260502045005 45 48 0.0 0.0 0.00 0.00 0.00 68 1012.1
20260502044517 43 315 0.0 0.0 0.00 0.00 0.00 82 1011.5
20260502044437 45 48 0.0 0.0 0.00 0.00 0.00 68 1012.1
20260502043403 45 48 0.0 0.0 0.00 0.00 0.00 68 1012.1
20260502043022 43 315 0.0 0.0 0.00 0.00 0.00 81 1011.6
20260502042851 45 48 0.0 0.0 0.00 0.00 0.00 67 1012.1
20260502042349 45 48 0.0 0.0 0.00 0.00 0.00 67 1012.2
20260502041829 45 48 0.0 0.0 0.00 0.00 0.00 67 1012.2
20260502041529 43 315 0.0 0.0 0.00 0.00 0.00 81 1011.6
20260502041317 45 48 0.0 0.0 0.00 0.00 0.00 66 1012.3
20260502040818 45 48 0.0 1.0 0.00 0.00 0.00 65 1012.3
20260502040310 45 48 0.0 2.0 0.00 0.00 0.00 65 1012.3
20260502040013 42 315 0.0 2.0 0.00 0.00 0.00 79 1011.7
20260502035805 45 48 0.0 2.0 0.00 0.00 0.00 64 1012.3
20260502035233 45 47 0.0 0.0 0.00 0.00 0.00 63 1012.3
20260502034707 46 47 0.0 0.0 0.00 0.00 0.00 62 1012.3
20260502034513 43 315 0.0 0.0 0.00 0.00 0.00 77 1011.6
20260502034201 46 47 0.0 0.0 0.00 0.00 0.00 62 1012.3
20260502033137 46 47 0.0 0.0 0.00 0.00 0.00 62 1012.3
20260502033024 44 315 0.0 0.0 0.00 0.00 0.00 77 1011.7
20260502032554 46 47 0.0 0.0 0.00 0.00 0.00 62 1012.4
20260502031533 45 47 0.0 0.0 0.00 0.00 0.00 62 1012.4
20260502031522 44 315 0.0 0.0 0.00 0.00 0.00 77 1011.8
20260502031027 45 47 0.0 0.0 0.00 0.00 0.00 61 1012.4
20260502030026 44 315 0.0 0.0 0.00 0.00 0.00 75 1011.7
20260502030007 45 47 0.0 0.0 0.00 0.00 0.00 61 1012.4
20260502024913 44 47 0.0 0.0 0.00 0.00 0.00 62 1012.2
20260502024510 44 315 0.0 2.0 0.00 0.00 0.00 76 1011.5
20260502024338 44 47 0.0 0.0 0.00 0.00 0.00 63 1012.2
20260502023834 44 47 0.0 0.0 0.00 0.00 0.00 63 1012.3
20260502023320 44 47 0.0 0.0 0.00 0.00 0.00 63 1012.3
20260502023016 43 315 0.0 0.0 0.00 0.00 0.00 77 1011.7
20260502022814 43 47 0.0 0.0 0.00 0.00 0.00 64 1012.4
20260502022246 43 47 0.0 0.0 0.00 0.00 0.00 62 1012.4
20260502021729 43 47 0.0 0.0 0.00 0.00 0.00 62 1012.4
20260502021520 42 315 0.0 0.0 0.00 0.00 0.00 77 1011.6
20260502021225 43 47 0.0 0.0 0.00 0.00 0.00 62 1012.3
20260502020709 43 47 0.0 0.0 0.00 0.00 0.00 62 1012.3
20260502020203 43 47 0.0 0.0 0.00 0.00 0.00 64 1012.3
20260502020024 42 315 0.0 0.0 0.00 0.00 0.00 77 1011.5
20260502015651 43 47 0.0 0.0 0.00 0.00 0.00 64 1012.2
20260502015135 43 47 0.0 0.0 0.00 0.00 0.00 65 1012.2
20260502014629 44 47 0.0 0.0 0.00 0.00 0.00 64 1012.2
20260502014528 42 315 0.0 2.0 0.00 0.00 0.00 77 1011.4
20260502014125 44 47 0.0 0.0 0.00 0.00 0.00 62 1012.0
20260502013625 44 47 0.0 1.0 0.00 0.00 0.00 62 1012.0
20260502013119 44 47 0.0 1.0 0.00 0.00 0.00 62 1012.0
20260502013014 42 309 0.0 0.0 0.00 0.00 0.00 75 1011.3
20260502012620 45 47 0.0 0.0 0.00 0.00 0.00 58 1011.8
20260502012044 45 47 0.0 0.0 0.00 0.00 0.00 58 1011.8
20260502011517 43 309 0.0 0.0 0.00 0.00 0.00 71 1011.0
20260502010020 44 309 0.0 0.0 0.00 0.00 0.00 70 1010.9
20260502010013 47 47 0.0 0.0 0.00 0.00 0.00 52 1011.6
20260502005507 47 47 0.0 0.0 0.00 0.00 0.00 50 1011.4
20260502004957 48 47 0.0 0.0 0.00 0.00 0.00 49 1011.4
20260502004524 45 309 0.0 0.0 0.00 0.00 0.00 68 1010.7
20260502004445 48 47 0.0 0.0 0.00 0.00 0.00 46 1011.4
20260502003933 49 47 0.0 0.0 0.00 0.00 0.00 45 1011.2
20260502003425 49 47 0.0 0.0 0.00 0.00 0.00 45 1011.2
20260502003028 46 309 0.0 2.0 0.00 0.00 0.00 65 1010.5
20260502002329 50 47 0.0 0.0 0.00 0.00 0.00 44 1010.8
20260502001823 51 47 0.0 0.0 0.00 0.00 0.00 44 1010.8
20260502001512 47 309 0.0 0.0 0.00 0.00 0.00 64 1010.3
20260502000219 53 47 0.0 0.0 0.00 0.00 0.00 39 1010.6
20260502000020 49 309 0.0 0.0 0.00 0.00 0.00 55 1010.1
20260501235708 54 47 0.0 0.0 0.00 0.00 0.00 37 1010.5
20260501235207 55 47 0.0 0.0 0.00 0.00 0.00 35 1010.5
20260501234523 51 309 0.0 2.0 0.00 0.00 0.00 53 1009.9
20260501233612 57 44 0.0 1.0 0.00 0.00 0.00 31 1010.2
20260501233109 58 44 0.0 2.0 0.00 0.00 0.00 29 1010.2
20260501233024 54 309 0.0 2.0 0.00 0.00 0.00 47 1009.6
20260501232539 58 44 0.0 6.0 0.00 0.00 0.00 28 1009.9
20260501232036 59 44 0.0 6.0 0.00 0.00 0.00 28 1009.9
20260501231537 59 42 0.0 1.0 0.00 0.00 0.00 27 1009.9
20260501231526 56 296 0.0 2.0 0.00 0.00 0.00 43 1009.4
20260501231033 60 42 0.0 4.0 0.00 0.00 0.00 28 1009.8
20260501230529 60 42 2.0 8.0 0.00 0.00 0.00 27 1009.8
20260501230025 60 37 2.0 8.0 0.00 0.00 0.00 26 1009.8
20260501230016 60 279 2.0 8.0 0.00 0.00 0.00 32 1009.2
20260501225014 61 61 2.0 7.0 0.00 0.00 0.00 25 1009.7
20260501224521 61 304 2.0 6.0 0.00 0.00 0.00 32 1009.1
20260501224458 61 86 2.0 7.0 0.00 0.00 0.00 26 1009.7
20260501223953 61 69 1.0 8.0 0.00 0.00 0.00 25 1009.7
20260501223454 61 86 2.0 8.0 0.00 0.00 0.00 25 1009.7
20260501223022 61 341 2.0 8.0 0.00 0.00 0.00 31 1009.1
20260501222951 61 134 2.0 8.0 0.00 0.00 0.00 27 1009.7
20260501222452 62 90 3.0 8.0 0.00 0.00 0.00 25 1009.7
20260501221529 61 344 3.0 11.0 0.00 0.00 0.00 30 1009.2
20260501221444 62 123 2.0 7.0 0.00 0.00 0.00 24 1009.7
20260501220942 62 141 2.0 8.0 0.00 0.00 0.00 26 1009.5
20260501220438 62 147 3.0 9.0 0.00 0.00 0.00 24 1009.5
20260501220030 62 311 4.0 10.0 0.00 0.00 0.00 30 1009.0
20260501215936 62 93 3.0 9.0 0.00 0.00 0.00 23 1009.5
20260501215437 63 138 2.0 8.0 0.00 0.00 0.00 23 1009.5
20260501214936 63 78 2.0 9.0 0.00 0.00 0.00 22 1009.5
20260501214517 62 242 2.0 9.0 0.00 0.00 0.00 29 1008.9
20260501214435 63 82 3.0 9.0 0.00 0.00 0.00 23 1009.5
20260501213420 63 71 3.0 7.0 0.00 0.00 0.00 24 1009.2
20260501213022 63 306 2.0 7.0 0.00 0.00 0.00 32 1008.8
20260501212905 64 14 4.0 9.0 0.00 0.00 0.00 25 1009.2
20260501212400 63 42 4.0 9.0 0.00 0.00 0.00 22 1009.2
20260501211854 64 102 2.0 8.0 0.00 0.00 0.00 24 1009.2
20260501211523 63 309 3.0 12.0 0.00 0.00 0.00 29 1008.7
20260501211353 63 71 3.0 8.0 0.00 0.00 0.00 23 1009.2
20260501210845 63 133 3.0 11.0 0.00 0.00 0.00 24 1009.0
20260501210345 64 42 3.0 11.0 0.00 0.00 0.00 23 1009.0
20260501210025 63 305 2.0 8.0 0.00 0.00 0.00 30 1008.6
20260501205342 63 14 4.0 11.0 0.00 0.00 0.00 23 1009.0
20260501204834 63 68 4.0 11.0 0.00 0.00 0.00 23 1009.0
20260501204534 62 317 4.0 11.0 0.00 0.00 0.00 29 1008.5
20260501203831 63 130 4.0 10.0 0.00 0.00 0.00 23 1008.8